Track STARLINK-11207 now! 10-day predictions STARLINK-11207 is classified as:
1 60933U 24155K 24325.91139446 -.00001688 00000-0 -90732-5 0 9992 2 60933 53.1562 156.5529 0001339 91.2004 268.9167 15.69703846 13990